DW4393 Weather Reports


Display with metric or nautical units.
time (UTC)temp
F
wind
direction
speed
MPH
gust
MPH
rain 1hr
in
rain 24hr
in
rain mn
in
humidity
%
barometer
mb
20260904174802 92 138 0.0 0.0 0.00 0.00 0.00 57 1015.8
20260904174302 93 193 0.0 0.0 0.00 0.00 0.00 58 1015.8
20260904173302 92 220 0.0 0.0 0.00 0.00 0.00 59 1015.8
20260904171802 92 90 0.0 0.0 0.00 0.00 0.00 59 1016.0
20260904170802 91 83 0.0 0.0 0.00 0.00 0.00 61 1016.0
20260904164803 90 189 0.0 0.0 0.00 0.00 0.00 63 1016.3
20260904164303 90 192 0.0 0.0 0.00 0.00 0.00 64 1016.3
20260904163802 90 176 0.0 0.0 0.00 0.00 0.00 64 1016.4
20260904163302 89 165 0.0 0.0 0.00 0.00 0.00 64 1016.3
20260904161802 88 269 0.0 0.0 0.00 0.00 0.00 69 1016.7
20260904160803 87 132 0.0 0.0 0.00 0.00 0.00 71 1016.9
20260904154802 86 240 0.0 0.0 0.00 0.00 0.00 73 1016.8
20260904153802 85 252 0.0 0.0 0.00 0.00 0.00 75 1016.8
20260904151803 83 230 0.0 0.0 0.00 0.00 0.00 78 1016.8
20260904151302 83 230 0.0 0.0 0.00 0.00 0.00 79 1016.9
20260904150803 83 230 0.0 0.0 0.00 0.00 0.00 79 1017.1
20260904150303 82 230 0.0 0.0 0.00 0.00 0.00 80 1017.0
20260904144802 78 246 0.0 0.0 0.00 0.00 0.00 90 1016.9
20260904144302 77 246 0.0 0.0 0.00 0.00 0.00 92 1016.8
20260904141803 75 192 0.0 0.0 0.00 0.00 0.00 94 1016.9
20260904141302 75 192 0.0 0.0 0.00 0.00 0.00 94 1016.9
20260904140803 75 192 0.0 0.0 0.00 0.00 0.00 94 1016.8
20260904140302 75 192 0.0 0.0 0.00 0.00 0.00 95 1016.8
20260904134803 74 192 0.0 0.0 0.00 0.00 0.00 95 1016.7
20260904134302 74 192 0.0 0.0 0.00 0.00 0.00 95 1016.7
20260904133803 74 192 0.0 0.0 0.00 0.00 0.00 95 1016.6
20260904133303 73 192 0.0 0.0 0.00 0.00 0.00 94 1016.5
20260904131803 73 192 0.0 0.0 0.00 0.00 0.00 94 1016.7
20260904130302 72 192 0.0 0.0 0.00 0.00 0.00 94 1016.9
20260904124802 71 192 0.0 0.0 0.00 0.00 0.00 93 1016.7
20260904124303 71 192 0.0 0.0 0.00 0.00 0.00 93 1016.8
20260904123802 71 192 0.0 0.0 0.00 0.00 0.00 93 1016.7
20260904123302 71 192 0.0 0.0 0.00 0.00 0.00 93 1016.8
20260904121302 71 192 0.0 0.0 0.00 0.00 0.00 92 1016.6
20260904120803 71 192 0.0 0.0 0.00 0.00 0.00 92 1016.7
20260904120302 71 192 0.0 0.0 0.00 0.00 0.00 92 1016.6
20260904114803 71 192 0.0 0.0 0.00 0.00 0.00 92 1016.5
20260904114302 71 192 0.0 0.0 0.00 0.00 0.00 92 1016.4
20260904113803 71 192 0.0 0.0 0.00 0.00 0.00 92 1016.3
20260904111802 71 192 0.0 0.0 0.00 0.00 0.00 92 1016.3
20260904110803 72 192 0.0 0.0 0.00 0.00 0.00 92 1016.2
20260904104802 72 192 0.0 0.0 0.00 0.00 0.00 92 1016.0
20260904104302 72 192 0.0 0.0 0.00 0.00 0.00 92 1016.1
20260904103802 72 192 0.0 0.0 0.00 0.00 0.00 92 1016.1
20260904103302 72 192 0.0 0.0 0.00 0.00 0.00 92 1016.1
20260904101803 72 192 0.0 0.0 0.00 0.00 0.00 92 1015.8
20260904101303 72 192 0.0 0.0 0.00 0.00 0.00 92 1015.8
20260904100803 72 192 0.0 0.0 0.00 0.00 0.00 92 1015.8
20260904100303 72 192 0.0 0.0 0.00 0.00 0.00 92 1015.8
20260904094802 72 192 0.0 0.0 0.00 0.00 0.00 91 1015.9
20260904094303 72 192 0.0 0.0 0.00 0.00 0.00 91 1015.8
20260904093303 73 192 0.0 0.0 0.00 0.00 0.00 91 1015.7
20260904091803 73 192 0.0 0.0 0.00 0.00 0.00 91 1015.6
20260904091302 73 192 0.0 0.0 0.00 0.00 0.00 91 1015.6
20260904090803 73 192 0.0 0.0 0.00 0.00 0.00 91 1015.6
20260904090302 73 192 0.0 0.0 0.00 0.00 0.00 91 1015.6
20260904084802 73 192 0.0 0.0 0.00 0.00 0.00 91 1015.5
20260904084303 73 192 0.0 0.0 0.00 0.00 0.00 91 1015.5
20260904083804 73 192 0.0 0.0 0.00 0.00 0.00 91 1015.5
20260904083303 73 192 0.0 0.0 0.00 0.00 0.00 91 1015.5
20260904081803 73 192 0.0 0.0 0.00 0.00 0.00 91 1015.5
20260904081303 73 192 0.0 0.0 0.00 0.00 0.00 91 1015.6
20260904080803 74 192 0.0 0.0 0.00 0.00 0.00 91 1015.6
20260904080302 74 192 0.0 0.0 0.00 0.00 0.00 91 1015.4
20260904074803 74 192 0.0 0.0 0.00 0.00 0.00 91 1015.4
20260904074303 74 192 0.0 0.0 0.00 0.00 0.00 91 1015.4
20260904073802 74 192 0.0 0.0 0.00 0.00 0.00 90 1015.4
20260904073303 74 192 0.0 0.0 0.00 0.00 0.00 90 1015.4
20260904071303 74 192 0.0 0.0 0.00 0.00 0.00 91 1015.3
20260904070803 74 192 0.0 0.0 0.00 0.00 0.00 90 1015.3
20260904064803 74 192 0.0 0.0 0.00 0.00 0.00 90 1015.4
20260904063806 74 192 0.0 0.0 0.00 0.00 0.00 90 1015.5
20260904061802 75 192 0.0 0.0 0.00 0.00 0.00 90 1015.6
20260904061303 75 192 0.0 0.0 0.00 0.00 0.00 90 1015.6
20260904060803 75 192 0.0 0.0 0.00 0.00 0.00 90 1015.6
20260904060303 75 192 0.0 0.0 0.00 0.00 0.00 90 1015.7
20260904053803 75 192 0.0 0.0 0.00 0.00 0.00 89 1015.7
20260904053303 75 192 0.0 0.0 0.00 0.00 0.00 89 1015.6
20260904051803 76 192 0.0 0.0 0.00 0.00 0.00 89 1015.8
20260904051303 76 192 0.0 0.0 0.00 0.00 0.00 89 1015.7
20260904050803 76 192 0.0 0.0 0.00 0.00 0.00 89 1015.6
20260904050303 76 192 0.0 0.0 0.00 0.00 0.00 89 1015.7
20260904044303 76 192 0.0 0.0 0.00 0.00 0.00 89 1015.8
20260904043803 76 192 0.0 0.0 0.00 0.00 0.00 89 1015.9
20260904043303 76 192 0.0 0.0 0.00 0.00 0.00 88 1015.8
20260904041803 76 192 0.0 0.0 0.00 0.00 0.00 89 1015.9
20260904041303 76 192 0.0 0.0 0.00 0.00 0.00 88 1016.0
20260904040820 77 192 0.0 0.0 0.00 0.00 0.00 88 1016.1
20260904040303 77 192 0.0 0.0 0.00 0.00 0.00 88 1016.0
20260904034303 77 192 0.0 0.0 0.00 0.00 0.00 88 1015.9
20260904033302 77 192 0.0 0.0 0.00 0.00 0.00 88 1016.0
20260904031303 77 192 0.0 0.0 0.00 0.00 0.00 89 1015.9
20260904030803 77 192 0.0 0.0 0.00 0.00 0.00 89 1015.8
20260904030303 77 192 0.0 0.0 0.00 0.00 0.00 89 1015.9
20260904024803 77 192 0.0 0.0 0.00 0.00 0.00 88 1015.9
20260904024303 78 192 0.0 0.0 0.00 0.00 0.00 88 1016.0
20260904023803 78 192 0.0 0.0 0.00 0.00 0.00 88 1016.0
20260904023303 78 192 0.0 0.0 0.00 0.00 0.00 88 1015.9
20260904021803 78 192 0.0 0.0 0.00 0.00 0.00 88 1015.9
20260904021303 78 192 0.0 0.0 0.00 0.00 0.00 87 1015.9
20260904020803 78 192 0.0 0.0 0.00 0.00 0.00 87 1015.8
20260904020303 78 192 0.0 0.0 0.00 0.00 0.00 87 1015.8
20260904014803 79 192 0.0 0.0 0.00 0.00 0.00 86 1015.7
20260904014304 79 192 0.0 0.0 0.00 0.00 0.00 86 1015.6
20260904013803 79 192 0.0 0.0 0.00 0.00 0.00 85 1015.5
20260904013303 79 192 0.0 0.0 0.00 0.00 0.00 85 1015.4
20260904011803 80 192 0.0 0.0 0.00 0.00 0.00 84 1015.3
20260904011303 80 192 0.0 0.0 0.00 0.00 0.00 84 1015.2
20260904010303 80 192 0.0 0.0 0.00 0.00 0.00 83 1015.1
20260904004303 81 192 0.0 0.0 0.00 0.00 0.00 82 1014.9
20260904003803 81 192 0.0 0.0 0.00 0.00 0.00 81 1014.8
20260904003303 81 192 0.0 0.0 0.00 0.00 0.00 81 1014.8
20260904001803 82 192 0.0 0.0 0.00 0.00 0.00 79 1014.6
20260904001304 82 192 0.0 0.0 0.00 0.00 0.00 79 1014.6
20260904000803 82 192 0.0 0.0 0.00 0.00 0.00 78 1014.5
20260904000303 82 192 0.0 0.0 0.00 0.00 0.00 78 1014.4
20260903234804 83 192 0.0 0.0 0.00 0.00 0.00 75 1014.3
20260903233804 83 192 0.0 0.0 0.00 0.00 0.00 75 1014.3
20260903233304 84 192 0.0 0.0 0.00 0.00 0.00 75 1014.2
20260903231804 84 192 0.0 0.0 0.00 0.00 0.00 73 1014.1
20260903231303 84 319 0.0 0.0 0.00 0.00 0.00 73 1014.1
20260903230803 84 319 0.0 0.0 0.00 0.00 0.00 72 1014.1
20260903230303 85 319 0.0 0.0 0.00 0.00 0.00 72 1014.1
20260903224803 85 52 0.0 0.0 0.00 0.00 0.00 71 1013.9
20260903224303 86 53 0.0 0.0 0.00 0.00 0.00 70 1014.0
20260903223303 87 247 0.0 0.0 0.00 0.00 0.00 69 1013.7
20260903221303 88 247 0.0 0.0 0.00 0.00 0.00 66 1013.8
20260903220803 88 247 0.0 0.0 0.00 0.00 0.00 67 1013.7
20260903220303 89 247 0.0 0.0 0.00 0.00 0.00 69 1013.7
20260903214803 90 247 0.0 0.0 0.00 0.00 0.00 64 1013.6
20260903214304 90 247 0.0 0.0 0.00 0.00 0.00 60 1013.5
20260903213803 90 247 0.0 0.0 0.00 0.00 0.00 62 1013.5
20260903213303 90 247 0.0 0.0 0.00 0.00 0.00 66 1013.6
20260903211803 89 257 0.0 0.0 0.00 0.00 0.00 70 1013.5
20260903211303 89 257 0.0 0.0 0.00 0.00 0.00 71 1013.6
20260903210804 88 257 0.0 0.0 0.00 0.00 0.00 71 1013.7
20260903210304 88 257 0.0 0.0 0.00 0.00 0.00 71 1013.7
20260903204303 89 257 0.0 0.0 0.00 0.00 0.00 67 1013.9
20260903203303 90 257 0.0 0.0 0.00 0.00 0.00 65 1014.0
20260903201803 91 257 0.0 0.0 0.00 0.00 0.00 62 1014.2
20260903200803 92 257 0.0 0.0 0.00 0.00 0.00 61 1014.3
20260903200303 92 257 0.0 0.0 0.00 0.00 0.00 58 1014.3
20260903194803 94 201 0.0 0.0 0.00 0.00 0.00 53 1014.6
20260903194303 95 201 0.0 0.0 0.00 0.00 0.00 51 1014.6
20260903193803 96 201 0.0 0.0 0.00 0.00 0.00 49 1014.7
20260903193303 97 239 0.0 0.0 0.00 0.00 0.00 47 1014.8
20260903191803 97 155 0.0 0.0 0.00 0.00 0.00 47 1015.0
20260903191303 96 229 0.0 0.0 0.00 0.00 0.00 49 1015.0
20260903190804 96 227 0.0 0.0 0.00 0.00 0.00 48 1015.1
20260903190303 96 246 0.0 0.0 0.00 0.00 0.00 48 1015.1
20260903183804 95 251 0.0 0.0 0.00 0.00 0.00 50 1015.3
20260903183303 95 67 0.0 0.0 0.00 0.00 0.00 50 1015.4
20260903181804 95 222 0.0 0.0 0.00 0.00 0.00 54 1015.5
20260903181303 94 330 0.0 0.0 0.00 0.00 0.00 54 1015.6
20260903180803 94 187 0.0 0.0 0.00 0.00 0.00 56 1015.7
20260903180303 94 189 0.0 0.0 0.00 0.00 0.00 53 1015.7